Terug naar catalogus

H-2A R/B

ActiefHEO
NORAD 29657·ROCKET BODY·🇯🇵 Japan

Gelanceerd Dec 18, 2006 vanaf Tanegashima Space Center

Loading…

Volgende Passages (komende 24 uur)

TLE

VersSource: Space-Track

Epoch: Sep 14, 2026, 06:34 UTC

1 29657U 06059B   26257.27402532  .00021069  00000-0  91147-3 0  9999
2 29657  28.5949 183.4764 4352466 320.2206  14.8271  6.83232855326169

Volg H-2A R/B in realtime met AllMySat

Download on the App Store